Satellite-Ground Cal/Val Region Overpasses Predictions

Prediction of Satellite NPP Overpassing Cal/Val Region: PacNW

Region Location: (Latitude: 10.00, Longitude: 139.50) to (Latitude: 22.70, Longitude: 165.60).

Table of predicted overpasses for the next 14.0 days since TLE Epoch: 3/30/2013
Interval Starting Time Starting Location Ending Time Ending Location
1 03/30/2013 15:35:47 ( 22.68, 150.64) 03/30/2013 15:39:23 ( 10.00, 147.62)
2 03/31/2013 02:44:53 ( 10.05, 158.15) 03/31/2013 02:48:28 ( 22.67, 155.14)
3 03/31/2013 15:16:47 ( 22.65, 155.39) 03/31/2013 15:20:22 ( 10.03, 152.38)
4 04/01/2013 02:25:51 ( 10.02, 162.91) 04/01/2013 02:29:26 ( 22.64, 159.90)
5 04/01/2013 14:57:45 ( 22.68, 160.15) 04/01/2013 15:01:20 ( 10.06, 157.15)
6 04/02/2013 02:09:21 ( 18.86, 165.59) 04/02/2013 02:10:26 ( 22.67, 164.65)
7 04/02/2013 03:48:21 ( 10.06, 142.28) 04/02/2013 03:51:40 ( 21.74, 139.51)
8 04/02/2013 14:38:45 ( 22.65, 164.90) 04/02/2013 14:42:20 ( 10.03, 161.89)
9 04/02/2013 16:20:15 ( 22.64, 139.53) 04/02/2013 16:20:16 ( 22.59, 139.51)
10 04/03/2013 03:29:20 ( 10.03, 147.04) 04/03/2013 03:32:55 ( 22.65, 144.04)
11 04/03/2013 16:01:13 ( 22.67, 144.29) 04/03/2013 16:04:48 ( 10.05, 141.28)
12 04/04/2013 03:10:18 ( 10.00, 151.81) 04/04/2013 03:13:54 ( 22.68, 148.79)
13 04/04/2013 15:42:12 ( 22.70, 149.05) 04/04/2013 15:45:48 ( 10.02, 146.03)
14 04/05/2013 02:51:18 ( 10.03, 156.56) 04/05/2013 02:54:53 ( 22.65, 153.55)
15 04/05/2013 15:23:11 ( 22.67, 153.80) 04/05/2013 15:26:46 ( 10.05, 150.79)
16 04/06/2013 02:32:16 ( 10.01, 161.32) 04/06/2013 02:35:52 ( 22.69, 158.30)
17 04/06/2013 15:04:10 ( 22.69, 158.56) 04/06/2013 15:07:46 ( 10.01, 155.54)
18 04/07/2013 02:13:51 ( 12.10, 165.59) 04/07/2013 02:16:51 ( 22.66, 163.06)
19 04/07/2013 03:54:46 ( 10.04, 140.69) 04/07/2013 03:56:13 ( 15.15, 139.51)
20 04/07/2013 14:45:09 ( 22.66, 163.31) 04/07/2013 14:48:44 ( 10.04, 160.30)
21 04/08/2013 03:35:44 ( 10.02, 145.45) 04/08/2013 03:39:20 ( 22.70, 142.43)
22 04/08/2013 14:29:04 ( 12.35, 165.59) 04/08/2013 14:29:44 ( 10.00, 165.05)
23
